Weather History for Lambertville, MI

Change the Weather History Date:

Sunday, May 12, 2013

  Actual Average (KTOL) Record (KTOL)
Temperature  
Mean Temperature 42 °F 58 °F  
Max Temperature 50 °F 70 °F 90 °F (1881)
Min Temperature 33 °F 47 °F 30 °F (2013)
Degree Days  
Heating Degree Days 22 8  
Month to date heating degree days 108  
Since 1 July heating degree days 6010  
Cooling Degree Days 0 1  
Month to date cooling degree days 9  
Year to date cooling degree days 17  
Moisture  
Dew Point 29 °F    
Average Humidity 61    
Maximum Humidity 81    
Minimum Humidity 40    
Precipitation  
Precipitation 0.00 in 0.11 in 1.51 in (1970)
Month to date precipitation 1.31  
Year to date precipitation 11.10  
Snow  
Snow 0.00 in 0.00 in - ()
Month to date snowfall 0.1  
Since 1 July snowfall 37.6  
Snow Depth -    
Sea Level Pressure  
Sea Level Pressure 30.00 in    
Wind  
Wind Speed 8 mph (West)    
Max Wind Speed 20 mph    
Max Gust Speed 30 mph    
Visibility 10 miles    
Events      
T = Trace of Precipitation, MM = Missing Value Source: NWS Daily Summary

Daily Weather History Graph

Daily Weather History Graph

Search for Another Location

Airport:

Trip Planner

Search our weather history database for the weather conditions in past years. The results will help you decide how hot, cold, wet, or windy it might be!

Date:

Astronomy

May. 12, 2013 Rise Set
Actual Time 6:17 AM EDT 8:44 PM EDT
Civil Twilight 5:46 AM EDT 9:16 PM EDT
Nautical Twilight 5:07 AM EDT 9:55 PM EDT
Astronomical Twilight 4:23 AM EDT 10:39 PM EDT
Moon 8:11 AM EDT (5/12) 11:11 PM EDT (5/12)
Length of Visible Light 15h 30m
Length of Day
14h 27m
Waxing Crescent, 6% of the Moon is Illuminated
May 12
Waxing Crescent
May 18
First Quarter
May 25
Full
May 31
Last Quarter
Jun 8
New

Hourly Weather History & Observations

Time (EDT) Temp. Windchill Dew Point Humidity Pressure Visibility Wind Dir Wind Speed Gust Speed Precip Events Conditions
12:15 AM 37.4 °F - 32.0 °F 81% 29.94 in 10.0 mi Calm Calm - N/A   Clear
12:35 AM 37.4 °F 34.9 °F 32.0 °F 81% 29.94 in 10.0 mi SW 3.5 mph - N/A   Clear
12:55 AM 37.4 °F 33.8 °F 32.0 °F 81% 29.94 in 10.0 mi SW 4.6 mph - N/A   Clear
1:15 AM 37.4 °F 34.9 °F 32.0 °F 81% 29.94 in 10.0 mi SW 3.5 mph - N/A   Clear
1:35 AM 37.4 °F 32.1 °F 32.0 °F 81% 29.95 in 10.0 mi WSW 6.9 mph - N/A   Clear
1:55 AM 37.4 °F 33.8 °F 32.0 °F 81% 29.94 in 10.0 mi WSW 4.6 mph - N/A   Clear
2:15 AM 39.2 °F 35.0 °F 32.0 °F 75% 29.94 in 10.0 mi WSW 5.8 mph - N/A   Clear
2:35 AM 39.2 °F 35.9 °F 32.0 °F 75% 29.94 in 10.0 mi WSW 4.6 mph - N/A   Clear
2:55 AM 37.4 °F 32.8 °F 32.0 °F 81% 29.93 in 10.0 mi WSW 5.8 mph - N/A   Clear
3:15 AM 37.4 °F 32.1 °F 32.0 °F 81% 29.93 in 10.0 mi WSW 6.9 mph - N/A   Clear
3:35 AM 37.4 °F 31.4 °F 32.0 °F 81% 29.93 in 10.0 mi WSW 8.1 mph - N/A   Clear
3:55 AM 37.4 °F 32.1 °F 32.0 °F 81% 29.93 in 10.0 mi WSW 6.9 mph - N/A   Clear
4:15 AM 37.4 °F 33.8 °F 32.0 °F 81% 29.93 in 10.0 mi WSW 4.6 mph - N/A   Clear
4:35 AM 37.4 °F 32.8 °F 32.0 °F 81% 29.93 in 10.0 mi West 5.8 mph - N/A   Clear
4:55 AM 37.4 °F 31.4 °F 32.0 °F 81% 29.92 in 10.0 mi WSW 8.1 mph - N/A   Clear
5:35 AM 37.4 °F 31.4 °F 32.0 °F 81% 29.92 in 10.0 mi WSW 8.1 mph - N/A   Clear
5:55 AM 37.4 °F 31.4 °F 32.0 °F 81% 29.92 in 10.0 mi West 8.1 mph - N/A   Clear
6:15 AM 37.4 °F 30.8 °F 32.0 °F 81% 29.93 in 10.0 mi West 9.2 mph - N/A   Clear
6:35 AM 37.4 °F 32.1 °F 32.0 °F 81% 29.93 in 10.0 mi WSW 6.9 mph - N/A   Scattered Clouds
6:55 AM 37.4 °F 30.8 °F 32.0 °F 81% 29.94 in 10.0 mi West 9.2 mph - N/A   Clear
7:15 AM 39.2 °F 32.5 °F 32.0 °F 75% 29.94 in 10.0 mi West 10.4 mph 16.1 mph N/A   Scattered Clouds
7:35 AM 39.2 °F 32.5 °F 32.0 °F 75% 29.95 in 10.0 mi West 10.4 mph - N/A   Mostly Cloudy
7:55 AM 39.2 °F 32.0 °F 32.0 °F 75% 29.95 in 10.0 mi West 11.5 mph 17.3 mph N/A   Mostly Cloudy
8:15 AM 41.0 °F 34.3 °F 32.0 °F 70% 29.95 in 10.0 mi West 11.5 mph 17.3 mph N/A   Mostly Cloudy
8:35 AM 41.0 °F 33.9 °F 30.2 °F 65% 29.95 in 10.0 mi West 12.7 mph 19.6 mph N/A   Scattered Clouds
8:55 AM 41.0 °F 33.9 °F 30.2 °F 65% 29.96 in 10.0 mi WNW 12.7 mph 19.6 mph N/A   Mostly Cloudy
9:15 AM 42.8 °F 35.8 °F 30.2 °F 61% 29.97 in 10.0 mi WNW 13.8 mph 24.2 mph N/A   Mostly Cloudy
9:35 AM 44.6 °F 37.8 °F 30.2 °F 57% 29.97 in 10.0 mi WNW 15.0 mph 21.9 mph N/A   Mostly Cloudy
9:55 AM 42.8 °F 35.8 °F 30.2 °F 61% 29.97 in 10.0 mi West 13.8 mph 23.0 mph N/A   Mostly Cloudy
10:15 AM 42.8 °F 35.8 °F 28.4 °F 57% 29.98 in 10.0 mi West 13.8 mph 20.7 mph N/A   Overcast
10:35 AM 42.8 °F 36.2 °F 28.4 °F 57% 29.98 in 10.0 mi WNW 12.7 mph 21.9 mph N/A   Overcast
10:55 AM 44.6 °F 38.4 °F 28.4 °F 53% 29.98 in 10.0 mi WNW 12.7 mph 21.9 mph N/A   Overcast
11:15 AM 44.6 °F 39.7 °F 28.4 °F 53% 29.99 in 10.0 mi WNW 9.2 mph 24.2 mph N/A   Overcast
11:35 AM 44.6 °F 38.1 °F 28.4 °F 53% 29.99 in 10.0 mi WNW 13.8 mph 23.0 mph N/A   Overcast
11:55 AM 44.6 °F 38.4 °F 28.4 °F 53% 30.00 in 10.0 mi West 12.7 mph 23.0 mph N/A   Overcast
12:15 PM 44.6 °F 38.4 °F 28.4 °F 53% 30.00 in 10.0 mi West 12.7 mph 18.4 mph N/A   Overcast
12:35 PM 46.4 °F 40.4 °F 28.4 °F 50% 30.00 in 10.0 mi West 13.8 mph 21.9 mph N/A   Overcast
12:55 PM 46.4 °F 42.4 °F 28.4 °F 50% 30.00 in 10.0 mi WNW 8.1 mph 19.6 mph N/A   Overcast
1:15 PM 46.4 °F 40.1 °F 28.4 °F 50% 30.00 in 10.0 mi West 15.0 mph 19.6 mph N/A   Overcast
1:35 PM 48.2 °F - 28.4 °F 46% 30.00 in 10.0 mi West 17.3 mph 23.0 mph N/A   Overcast
2:15 PM 48.2 °F - 28.4 °F 46% 30.00 in 10.0 mi West 18.4 mph 24.2 mph N/A   Overcast
2:35 PM 48.2 °F - 26.6 °F 43% 30.00 in 10.0 mi West 11.5 mph 20.7 mph N/A   Overcast
2:55 PM 50.0 °F - 26.6 °F 40% 30.00 in 10.0 mi West 16.1 mph 25.3 mph N/A   Overcast
3:15 PM 48.2 °F - 26.6 °F 43% 30.01 in 10.0 mi West 15.0 mph 25.3 mph N/A   Overcast
3:35 PM 50.0 °F - 26.6 °F 40% 30.01 in 10.0 mi West 19.6 mph 29.9 mph N/A   Overcast
3:55 PM 50.0 °F - 28.4 °F 43% 30.01 in 10.0 mi West 15.0 mph 27.6 mph N/A   Overcast
4:15 PM 48.2 °F - 26.6 °F 43% 30.01 in 10.0 mi WNW 13.8 mph 23.0 mph N/A   Overcast
4:35 PM 48.2 °F - 26.6 °F 43% 30.02 in 10.0 mi WNW 15.0 mph 21.9 mph N/A   Overcast
4:55 PM 48.2 °F - 26.6 °F 43% 30.02 in 10.0 mi West 15.0 mph 23.0 mph N/A   Overcast
5:15 PM 48.2 °F - 26.6 °F 43% 30.03 in 10.0 mi WNW 12.7 mph 21.9 mph N/A   Overcast
5:35 PM 46.4 °F 42.4 °F 26.6 °F 46% 30.03 in 10.0 mi WNW 8.1 mph 24.2 mph N/A   Overcast
5:55 PM 46.4 °F 39.8 °F 26.6 °F 46% 30.03 in 10.0 mi WNW 16.1 mph 24.2 mph N/A   Overcast
6:15 PM 46.4 °F 41.1 °F 26.6 °F 46% 30.04 in 10.0 mi WNW 11.5 mph 20.7 mph N/A   Overcast
6:35 PM 46.4 °F 40.4 °F 26.6 °F 46% 30.04 in 10.0 mi WNW 13.8 mph 25.3 mph N/A   Overcast
6:55 PM 46.4 °F 40.4 °F 26.6 °F 46% 30.05 in 10.0 mi West 13.8 mph 20.7 mph N/A   Overcast
7:15 PM 44.6 °F 39.2 °F 26.6 °F 49% 30.05 in 10.0 mi West 10.4 mph 20.7 mph N/A   Mostly Cloudy
7:35 PM 44.6 °F 40.2 °F 26.6 °F 49% 30.06 in 10.0 mi WNW 8.1 mph 20.7 mph N/A   Mostly Cloudy
7:55 PM 44.6 °F 38.4 °F 26.6 °F 49% 30.06 in 10.0 mi WNW 12.7 mph 16.1 mph N/A   Mostly Cloudy
8:15 PM 44.6 °F 38.8 °F 24.8 °F 46% 30.07 in 10.0 mi WNW 11.5 mph 20.7 mph N/A   Mostly Cloudy
8:35 PM 42.8 °F 37.0 °F 23.0 °F 46% 30.07 in 10.0 mi WNW 10.4 mph 17.3 mph N/A   Mostly Cloudy
8:55 PM 42.8 °F 38.6 °F 24.8 °F 49% 30.07 in 10.0 mi NW 6.9 mph - N/A   Scattered Clouds
9:15 PM 41.0 °F 36.4 °F 24.8 °F 53% 30.08 in 10.0 mi NW 6.9 mph - N/A   Scattered Clouds
9:35 PM 41.0 °F 38.0 °F 24.8 °F 53% 30.09 in 10.0 mi NW 4.6 mph - N/A   Scattered Clouds
9:55 PM 41.0 °F 38.0 °F 24.8 °F 53% 30.10 in 10.0 mi NW 4.6 mph - N/A   Clear
10:15 PM 39.2 °F - 26.6 °F 61% 30.10 in 10.0 mi Calm Calm - N/A   Clear
10:35 PM 37.4 °F - 26.6 °F 65% 30.11 in 10.0 mi Calm Calm - N/A   Clear
10:55 PM 37.4 °F - 26.6 °F 65% 30.11 in 10.0 mi Calm Calm - N/A   Clear
11:15 PM 37.4 °F - 26.6 °F 65% 30.11 in 10.0 mi Calm Calm - N/A   Clear
11:35 PM 35.6 °F - 26.6 °F 70% 30.11 in 10.0 mi Calm Calm - N/A   Clear
11:55 PM 33.8 °F - 26.6 °F 75% 30.11 in 10.0 mi Calm Calm - N/A   Clear